When you browse on this site, cookies collect data to enhance your experience and personalize the content and advertising you see.
Visit our Privacy Policy to learn more. By continuing to use the site, you agree to this use of cookies and data.
  • In Latvia
  • List of Countries
  • For 7 days
  • Water Temperature
  • Weather Map
  • Weather Widgets
  • user-avatar
    Login

    Hourly Weather Idzhewan

    Today, 21 January, Tuesday

    Time Temperature Precipitation Wind Pressure Humidity
    00:00 -1°C° 0 mm 1 mps 697 mmHg 86%
    01:00 -1°C° 0 mm 1 mps 697 mmHg 84%
    02:00 -1°C° 0 mm 1 mps 697 mmHg 82%
    03:00 -2°C° 0 mm 1 mps 697 mmHg 80%
    04:00 -2°C° 0 mm 1 mps 696 mmHg 78%
    05:00 -2°C° 0 mm 1 mps 696 mmHg 76%
    06:00 -2°C° 0 mm 1 mps 696 mmHg 74%
    07:00 -1°C° 0 mm 1 mps 697 mmHg 70%
    08:00 0°C° 0 mm 1 mps 697 mmHg 67%
    09:00 +2°C° 0 mm 1 mps 697 mmHg 63%
    10:00 +3°C° 0 mm 1 mps 697 mmHg 61%
    11:00 +4°C° 0 mm 1 mps 697 mmHg 58%
    12:00 +5°C° 0 mm 1 mps 697 mmHg 55%
    13:00 +5°C° 0 mm 1 mps 696 mmHg 55%
    14:00 +5°C° 0 mm 1 mps 696 mmHg 55%
    15:00 +6°C° 0 mm 1 mps 696 mmHg 56%
    16:00 +4°C° 0 mm 1 mps 696 mmHg 61%
    17:00 +2°C° 0 mm 0 mps 696 mmHg 65%
    18:00 0°C° 0 mm 0 mps 696 mmHg 70%
    19:00 0°C° 0 mm 0 mps 697 mmHg 71%
    20:00 +1°C° 0 mm 1 mps 697 mmHg 72%
    21:00 0°C° 0 mm 1 mps 697 mmHg 72%
    22:00 0°C° 0 mm 1 mps 697 mmHg 73%
    23:00 0°C° 0 mm 1 mps 697 mmHg 74%

    Tomorrow, 22 January, Wednesday

    Time Temperature Precipitation Wind Pressure Humidity
    00:00 -1°C° 0 mm 1 mps 697 mmHg 74%
    01:00 -1°C° 0 mm 1 mps 697 mmHg 74%
    02:00 -1°C° 0 mm 1 mps 697 mmHg 74%
    03:00 -1°C° 0 mm 1 mps 697 mmHg 74%
    04:00 -1°C° 0 mm 1 mps 697 mmHg 72%
    05:00 -4°C° 0 mm 2 mps 697 mmHg 70%
    06:00 -4°C° 0 mm 2 mps 696 mmHg 68%
    07:00 -3°C° 0 mm 2 mps 696 mmHg 65%
    08:00 -2°C° 0 mm 2 mps 696 mmHg 61%
    09:00 -2°C° 0 mm 2 mps 697 mmHg 58%
    10:00 +1°C° 0 mm 2 mps 696 mmHg 55%
    11:00 +3°C° 0 mm 1 mps 696 mmHg 52%
    12:00 +4°C° 0 mm 1 mps 695 mmHg 50%
    13:00 +4°C° 0 mm 1 mps 695 mmHg 50%
    14:00 +3°C° 0 mm 2 mps 694 mmHg 50%
    15:00 +4°C° 0 mm 2 mps 694 mmHg 50%
    16:00 +3°C° 0 mm 1 mps 694 mmHg 54%
    17:00 +2°C° 0 mm 1 mps 694 mmHg 58%
    18:00 +1°C° 0 mm 1 mps 694 mmHg 61%
    19:00 +1°C° 0 mm 1 mps 693 mmHg 62%
    20:00 0°C° 0 mm 1 mps 693 mmHg 62%
    21:00 -2°C° 0 mm 2 mps 693 mmHg 62%
    22:00 -3°C° 0 mm 2 mps 693 mmHg 61%
    23:00 -3°C° 0 mm 2 mps 692 mmHg 60%

    Day after tomorrow, 23 January, Thursday

    Time Temperature Precipitation Wind Pressure Humidity
    00:00 -3°C° 0 mm 2 mps 692 mmHg 59%
    01:00 -3°C° 0 mm 2 mps 692 mmHg 60%
    02:00 -4°C° 0 mm 2 mps 691 mmHg 60%
    03:00 -4°C° 0 mm 2 mps 691 mmHg 60%
    04:00 -5°C° 0 mm 3 mps 690 mmHg 61%
    05:00 -5°C° 0 mm 3 mps 690 mmHg 61%
    06:00 -5°C° 0 mm 3 mps 689 mmHg 62%
    07:00 -4°C° 0 mm 3 mps 689 mmHg 60%
    08:00 -2°C° 0 mm 3 mps 689 mmHg 59%
    09:00 -2°C° 0 mm 3 mps 689 mmHg 57%
    10:00 0°C° 0 mm 3 mps 688 mmHg 54%
    11:00 +2°C° 0 mm 2 mps 688 mmHg 52%
    12:00 +3°C° 0 mm 2 mps 687 mmHg 49%
    13:00 +3°C° 0 mm 2 mps 687 mmHg 50%
    14:00 +3°C° 0 mm 2 mps 687 mmHg 51%
    15:00 +3°C° 0 mm 2 mps 686 mmHg 51%
    16:00 +2°C° 0 mm 2 mps 686 mmHg 55%
    17:00 +1°C° 0 mm 2 mps 687 mmHg 58%
    18:00 0°C° 0 mm 3 mps 687 mmHg 61%
    19:00 -1°C° 0 mm 3 mps 687 mmHg 61%
    20:00 -1°C° 0 mm 3 mps 687 mmHg 62%
    21:00 -1°C° 0 mm 3 mps 688 mmHg 62%
    22:00 -1°C° 0 mm 3 mps 688 mmHg 64%
    23:00 -1°C° 0 mm 2 mps 688 mmHg 65%

    24 January, Friday

    Time Temperature Precipitation Wind Pressure Humidity
    00:00 -2°C° 0 mm 2 mps 688 mmHg 66%
    01:00 0°C° 0 mm 1 mps 689 mmHg 67%
    02:00 0°C° 0 mm 1 mps 689 mmHg 68%
    03:00 0°C° 0 mm 1 mps 689 mmHg 69%
    04:00 -1°C° 0 mm 1 mps 689 mmHg 69%
    05:00 -1°C° 0 mm 1 mps 689 mmHg 69%
    06:00 -1°C° 0 mm 1 mps 690 mmHg 69%
    07:00 -1°C° 0 mm 1 mps 690 mmHg 64%
    08:00 -2°C° 0 mm 2 mps 691 mmHg 59%
    09:00 -2°C° 0 mm 2 mps 692 mmHg 53%
    10:00 -1°C° 0 mm 2 mps 692 mmHg 50%
    11:00 -1°C° 0 mm 3 mps 692 mmHg 46%
    12:00 0°C° 0 mm 3 mps 692 mmHg 42%
    13:00 0°C° 0 mm 3 mps 692 mmHg 43%
    14:00 -1°C° 0 mm 3 mps 692 mmHg 43%
    15:00 -1°C° 0 mm 3 mps 692 mmHg 44%
    16:00 -2°C° 0 mm 2 mps 693 mmHg 50%
    17:00 -1°C° 0 mm 1 mps 694 mmHg 56%
    18:00 -1°C° 0 mm 1 mps 694 mmHg 62%
    19:00 -2°C° 0 mm 1 mps 695 mmHg 62%
    20:00 -2°C° 0 mm 1 mps 696 mmHg 62%
    21:00 -3°C° 0 mm 1 mps 697 mmHg 62%
    22:00 -3°C° 0 mm 1 mps 698 mmHg 62%
    23:00 -4°C° 0 mm 1 mps 698 mmHg 63%

    25 January, Saturday

    Time Temperature Precipitation Wind Pressure Humidity
    00:00 -5°C° 0 mm 0 mps 699 mmHg 63%
    01:00 -6°C° 0 mm 1 mps 699 mmHg 64%
    02:00 -6°C° 0 mm 1 mps 699 mmHg 65%
    03:00 -6°C° 0 mm 1 mps 700 mmHg 65%
    04:00 -6°C° 0 mm 1 mps 700 mmHg 64%
    05:00 -6°C° 0 mm 1 mps 700 mmHg 63%
    06:00 -8°C° 0 mm 2 mps 701 mmHg 62%
    07:00 -6°C° 0 mm 1 mps 701 mmHg 58%
    08:00 -4°C° 0 mm 1 mps 701 mmHg 54%
    09:00 -3°C° 0 mm 1 mps 702 mmHg 50%
    10:00 -2°C° 0 mm 1 mps 702 mmHg 45%
    11:00 0°C° 0 mm 1 mps 702 mmHg 41%
    12:00 +1°C° 0 mm 1 mps 701 mmHg 37%
    13:00 +1°C° 0 mm 1 mps 701 mmHg 38%
    14:00 +1°C° 0 mm 1 mps 701 mmHg 39%
    15:00 +2°C° 0 mm 1 mps 701 mmHg 40%
    16:00 +1°C° 0 mm 1 mps 701 mmHg 44%
    17:00 -1°C° 0 mm 1 mps 701 mmHg 48%
    18:00 -2°C° 0 mm 1 mps 700 mmHg 53%
    19:00 -4°C° 0 mm 2 mps 701 mmHg 50%
    20:00 -4°C° 0 mm 2 mps 701 mmHg 47%
    21:00 -4°C° 0 mm 2 mps 701 mmHg 44%
    22:00 -4°C° 0 mm 2 mps 701 mmHg 43%
    23:00 -4°C° 0 mm 2 mps 701 mmHg 41%

    26 January, Sunday

    Time Temperature Precipitation Wind Pressure Humidity
    00:00 -5°C° 0 mm 2 mps 700 mmHg 40%
    01:00 -4°C° 0 mm 2 mps 700 mmHg 39%
    02:00 -5°C° 0 mm 3 mps 700 mmHg 39%
    03:00 -5°C° 0 mm 3 mps 700 mmHg 38%
    04:00 -5°C° 0 mm 3 mps 700 mmHg 38%
    05:00 -5°C° 0 mm 3 mps 700 mmHg 39%
    06:00 -5°C° 0 mm 3 mps 700 mmHg 39%
    07:00 -4°C° 0 mm 3 mps 700 mmHg 39%
    08:00 -2°C° 0 mm 3 mps 700 mmHg 40%
    09:00 -1°C° 0 mm 2 mps 700 mmHg 40%
    10:00 +2°C° 0 mm 2 mps 700 mmHg 39%
    11:00 +3°C° 0 mm 2 mps 700 mmHg 39%
    12:00 +6°C° 0 mm 1 mps 700 mmHg 38%
    13:00 +6°C° 0 mm 1 mps 699 mmHg 39%
    14:00 +6°C° 0 mm 1 mps 699 mmHg 41%
    15:00 +6°C° 0 mm 1 mps 699 mmHg 42%
    16:00 +4°C° 0 mm 2 mps 699 mmHg 44%
    17:00 +2°C° 0 mm 2 mps 699 mmHg 46%
    18:00 +1°C° 0 mm 2 mps 698 mmHg 48%
    19:00 0°C° 0 mm 3 mps 698 mmHg 47%
    20:00 0°C° 0 mm 3 mps 698 mmHg 46%
    21:00 0°C° 0 mm 3 mps 698 mmHg 46%
    22:00 0°C° 0 mm 3 mps 698 mmHg 45%
    23:00 0°C° 0 mm 3 mps 698 mmHg 45%
    Show more